STARLINK-31939, 60026

Orbit data source: Space-Track

STARLINK-31939, 60026 is a payload satellite owned by SpaceX/Seattle (US) in LEO that was launched on Sat, 08 Jun 2024 UTC via an FALCON 9 launch vehicle from the Air Force Eastern Test Range (AFETR). Payload-class satellites include a variety of spacecraft equipped with specific instruments for various scientific and technological missions. These include communications satellites like Starlink; space stations such as the ISS; scientific satellites like the Hubble; Earth observation satellites from companies like Planet Labs, Umbra, and HawkEye 360; GPS; miniature CubeSats for education and research; and military/defense satellites.

Loading next visibility...
Identifier
60026, 2024-111L
Orbit
LEO
Country
Flag of USUS
Related business
Manufacturer
SpaceX/Seattle
Mission
Operational Commercial Communications
Bus & Motor
STARLINK V2M, Unknown motor
Mass
730 kg wet, ~700 kg dry
Launch date (UTC)
2024-06-08 (2 years ago)
Launch vehicle
FALCON 9
Launch site
Air Force Eastern Test Range (AFETR)
Object type
Payload
Rocket body
Debris
Shape & HBR
Box + 2 Pan, 17.7 m
Radar Cross Section
33.884 m², Large (>1 m²)

Expand to show TLE details & history
Last TLE update: 3 days ago

TLE from 3 days ago
0 STARLINK-31939
1 60026U 24111L   26170.82610977  .00001557  00000-0  64629-4 0  9998
2 60026  53.1616 321.0275 0000814  84.1216 275.9878 15.30222169114679
Epoch: 2026-06-19T19:49Z
TLE epoch observation values (Epoch: 2026-06-19T19:49:35.884Z)
Latitude
0.00003°
Longitude
115.57849°
Altitude
475.991 km
Speed
7.629 km/s
True Right ascension
21h 24m 06s
True Declination
0° 00' 00"
Sunlit
Object was in full shadow at epoch
Visualization orbit readout
Latitude
Unknown
Longitude
Unknown
Altitude
Unknown
Speed
Unknown
Apparent Right ascension
Unknown
Apparent Declination
Unknown
Sunlit
N/A
Visualization observer readout
Local Sidereal Time
21:29:05
Azimuth
Unknown
Elevation
Unknown
Doppler factor
Unknown
Orbital elements
Apogee altitude
475.963 km
Perigee altitude
474.847 km
Semi-major axis
6,853.542 km
Eccentricity
0.00008
Inclination
53.1616°
RAAN
321.0275°
Arg. of periapsis
84.1216°
True anomaly
275.97852°
Mean anomaly
275.9878°
Eccentric anomaly
275.98316°
Mean motion
3.82534 °/min
Orbital period
94.11 mins
BSTAR
0.000064629
Loading maneuver chart data...
Computing Atmospheric mass density...
Loading historical data...
Loading historical data...
Loading historical data...
Loading historical data...
Loading historical data...
Loading historical data...
Loading historical data...

Documentation

Showing up to 5 results
|